User: anonymous   Login
Location: Newark
(51.0089°N, 21.5817°E)
Time: 22:39:03
(UTC+00:00)
Language:

JY1SAT - Orbit

View from above orbital plane
View from above orbital plane
View from above satellite
View from above satellite

Ground track
Ground track

The orbit data is extracted from the following two-line orbital elements,

1 43803U 18099AX  20052.49384251  .00000528  00000-0  52926-4 0  9993
2 43803  97.7161 126.0349 0014269 216.9349 143.0890 14.95425527 66452
Epoch (UTC): 21 February 2020 11:51:07
Eccentricity: 0.0014269
inclination: 97.7161°
perigee height: 571 km
apogee height: 591 km
right ascension of ascending node: 126.0349°
argument of perigee: 216.9349°
revolutions per day: 14.95425527
mean anomaly at epoch: 143.0890°
orbit number at epoch: 6645

The dashed part of the orbit path shows where the satellite is in the earth's shadow,  

DLR